This demonstration page uses our WeatherBlox Daily Observations layout. Learn more.

Left ArrowRight Arrow

Hourly Observations for August 11, 2021

Temp ( °F °C ) Dew Point ( °F °C ) Humidity (%) Winds ( mph kmh ) Pressure ( in mb ) Visibility ( mi km ) Precip ( " mm )
12:15 am 00:15 Mostly Cloudy 79 26 73 22.5 81 81 SW 9 15 29.98 1015 10 16 0.00 0.00
12:35 am 00:35 Partly Cloudy 77 25.2 72 22 82 82 SW 7 11 29.99 1016 10 16 0.00 0.00
12:55 am 00:55 Partly Cloudy 76 24.7 71 21.4 82 82 SW 7 11 29.98 1015 10 16 0.00 0.00
1:15 am 01:15 Clear 75 24 69 20.8 82 82 SSW 7 11 29.98 1015 10 16 0.00 0.00
1:35 am 01:35 Clear 75 24.1 68 20.1 78 78 SSW 6 9 29.98 1015 10 16 0.00 0.00
1:55 am 01:55 Clear 75 23.8 68 19.8 78 78 SW 6 9 29.98 1015 10 16 0.00 0.00
2:15 am 02:15 Partly Cloudy 75 24.1 68 19.8 77 77 SSW 6 9 29.98 1015 10 16 0.00 0.00
2:35 am 02:35 Partly Cloudy 75 24.1 67 19.5 76 76 SSW 7 11 29.97 1015 10 16 0.00 0.00
2:55 am 02:55 Partly Cloudy 76 24.2 67 19.6 76 76 SSW 7 11 29.96 1015 10 16 0.00 0.00
3:15 am 03:15 Partly Cloudy 75 24 68 19.8 77 77 SSW 8 13 29.96 1015 10 16 0.00 0.00
3:35 am 03:35 Clear 75 24 68 20 78 78 SSW 7 11 29.96 1015 10 16 0.00 0.00
3:55 am 03:55 Clear 75 23.7 68 20.2 81 81 SSW 8 13 29.95 1014 10 16 0.00 0.00
4:15 am 04:15 Clear 75 23.8 69 20.5 82 82 SSW 8 13 29.96 1015 10 16 0.00 0.00
4:35 am 04:35 Mostly Cloudy 75 23.8 69 20.6 82 82 SSW 6 9 29.95 1014 10 16 0.00 0.00
4:55 am 04:55 Cloudy 74 23.6 69 20.7 84 84 SSW 7 11 29.95 1014 10 16 0.00 0.00
5:15 am 05:15 Partly Cloudy 74 23.4 70 20.9 86 86 SSW 6 9 29.96 1014 10 16 0.00 0.00
5:35 am 05:35 Clear 74 23.2 70 21 87 87 SSW 7 11 29.95 1014 10 16 0.00 0.00
5:55 am 05:55 Clear 74 23.2 70 21 87 87 SSW 8 13 29.95 1014 10 16 0.00 0.00
6:15 am 06:15 Partly Cloudy 74 23.2 70 21.1 88 88 SSW 8 13 29.95 1014 10 16 0.00 0.00
6:35 am 06:35 Mostly Cloudy 74 23.3 70 21.3 89 89 SSW 9 15 29.95 1014 10 16 0.00 0.00
6:55 am 06:55 Partly Cloudy 74 23.2 71 21.4 90 90 SSW 10 17 29.95 1014 10 16 0.00 0.00
7:15 am 07:15 Sunny 74 23.4 71 21.5 89 89 SW 8 13 29.95 1014 10 16 0.00 0.00
7:35 am 07:35 Sunny 75 23.7 71 21.5 88 88 SSW 8 13 29.94 1014 10 16 0.00 0.00
7:55 am 07:55 Sunny 75 24 71 21.7 87 87 SSW 9 15 29.95 1014 10 16 0.00 0.00
8:15 am 08:15 Sunny 77 24.8 72 22.1 85 85 SW 9 15 29.95 1014 10 16 0.00 0.00
8:35 am 08:35 Sunny 77 25 72 22.2 85 85 SW 6 9 29.95 1014 10 16 0.00 0.00
8:55 am 08:55 Sunny 78 25.3 72 22.4 84 84 SW 8 13 29.95 1014 10 16 0.00 0.00
9:15 am 09:15 Sunny 79 26 73 22.6 82 82 SW 8 13 29.94 1014 10 16 0.00 0.00
9:35 am 09:35 Sunny 80 26.5 73 22.7 80 80 SSW 8 13 29.95 1014 10 16 0.00 0.00
9:55 am 09:55 Sunny 81 27.1 73 23 78 78 SW 9 15 29.93 1014 10 16 0.00 0.00
10:15 am 10:15 Sunny 82 27.5 73 23 77 77 SW 8 13 29.93 1014 10 16 0.00 0.00
10:35 am 10:35 Sunny 83 28.4 74 23.3 74 74 SW 14 22 29.94 1014 10 16 0.00 0.00
10:55 am 10:55 Sunny 84 29 74 23.3 71 71 WSW 12 19 29.95 1014 10 16 0.00 0.00
11:15 am 11:15 Sunny 84 29.1 74 23.2 71 71 SW 15 24 29.95 1014 10 16 0.00 0.00
11:35 am 11:35 Sunny 85 29.6 74 23.5 70 70 SW 14 22 29.97 1015 10 16 0.00 0.00
11:55 am 11:55 Partly Cloudy 86 30.1 75 23.8 69 69 SW 10 17 29.97 1015 10 16 0.00 0.00
12:15 pm 12:15 Mostly Cloudy 86 29.9 74 23.2 67 67 WSW 14 22 29.97 1015 10 16 0.00 0.00
12:35 pm 12:35 Mostly Cloudy 86 30.2 74 23.6 68 68 SW 16 26 29.98 1015 10 16 0.00 0.00
12:55 pm 12:55 Cloudy 87 30.3 75 23.7 68 68 WSW 10 17 29.97 1015 10 16 0.00 0.00
1:15 pm 13:15 Cloudy 87 30.4 75 24 69 69 WSW 12 19 29.97 1015 10 16 0.00 0.00
1:35 pm 13:35 Cloudy 85 29.5 74 23.5 70 70 WSW 13 20 29.98 1015 10 16 0.00 0.00
1:55 pm 13:55 Cloudy with Thunderstorms 84 29.1 74 23.6 72 72 W 10 17 29.98 1015 10 16 0.00 0.00
2:15 pm 14:15 Cloudy with Thunderstorms 79 26.2 75 24.1 88 88 WSW 13 20 29.99 1015 4 6 0.07 1.78
2:35 pm 14:35 Mostly Cloudy 80 26.6 77 24.9 90 90 SW 9 15 29.98 1015 10 16 0.07 1.78
2:55 pm 14:55 Partly Cloudy 82 27.5 77 24.8 85 85 WSW 8 13 29.97 1015 10 16 0.07 1.78
3:15 pm 15:15 Mostly Cloudy 83 28.2 76 24.6 81 81 WSW 13 20 29.95 1014 10 16 0.00 0.00
3:35 pm 15:35 Partly Cloudy 83 28.5 76 24.6 79 79 SW 10 17 29.93 1014 10 16 0.00 0.00
3:55 pm 15:55 Sunny 83 28.6 76 24.3 78 78 SSW 13 20 29.90 1012 10 16 0.00 0.00
4:15 pm 16:15 Sunny 84 28.8 75 24.1 76 76 SSW 13 20 29.89 1012 10 16 0.00 0.00
4:35 pm 16:35 Sunny 84 29 75 23.8 74 74 S 13 20 29.87 1011 10 16 0.00 0.00
4:55 pm 16:55 Sunny 84 29.1 76 24.3 75 75 S 13 20 29.87 1011 10 16 0.00 0.00
5:15 pm 17:15 Sunny 85 29.3 75 24.1 74 74 SSW 16 26 29.86 1011 10 16 0.00 0.00
5:35 pm 17:35 Sunny 86 30 76 24.2 71 71 SSW 15 24 29.85 1011 10 16 0.00 0.00
5:55 pm 17:55 Sunny 85 29.7 75 24.1 72 72 SSW 14 22 29.86 1011 10 16 0.00 0.00
6:15 pm 18:15 Sunny 86 30.2 76 24.2 70 70 SSW 12 19 29.85 1011 10 16 0.00 0.00
6:35 pm 18:35 Sunny 86 30 75 24 70 70 SSW 13 20 29.85 1011 10 16 0.00 0.00
6:55 pm 18:55 Sunny 86 29.8 74 23.6 69 69 SSW 13 20 29.85 1011 10 16 0.00 0.00
7:15 pm 19:15 Sunny 85 29.7 74 23.4 69 69 SSW 15 24 29.86 1011 10 16 0.00 0.00
7:35 pm 19:35 Sunny 85 29.2 74 23.2 70 70 SSW 15 24 29.86 1011 10 16 0.00 0.00
7:55 pm 19:55 Sunny 84 28.7 74 23.1 72 72 SSW 15 24 29.86 1011 10 16 0.00 0.00
8:15 pm 20:15 Sunny 83 28.5 73 23 72 72 SSW 10 17 29.87 1011 10 16 0.00 0.00
8:35 pm 20:35 Sunny 82 28 73 23 74 74 SSW 12 19 29.88 1012 10 16 0.00 0.00
8:55 pm 20:55 Clear 82 27.5 73 23 77 77 SSW 9 15 29.88 1012 10 16 0.00 0.00
9:15 pm 21:15 Clear 81 27.4 73 23 77 77 SSW 13 20 29.89 1012 10 16 0.00 0.00
9:35 pm 21:35 Clear 81 27.3 73 23 77 77 SSW 14 22 29.89 1012 10 16 0.00 0.00
9:55 pm 21:55 Clear 81 27.1 73 22.8 77 77 SSW 12 19 29.91 1013 10 16 0.00 0.00
10:15 pm 22:15 Clear 81 27.1 73 22.7 77 77 SSW 12 19 29.91 1013 10 16 0.00 0.00
10:35 pm 22:35 Clear 81 27 73 22.7 77 77 SSW 15 24 29.92 1013 10 16 0.00 0.00
10:55 pm 22:55 Clear 81 27 73 22.7 77 77 SSW 15 24 29.92 1013 10 16 0.00 0.00
11:15 pm 23:15 Clear 80 26.8 73 22.7 78 78 SSW 13 20 29.92 1013 10 16 0.00 0.00
11:35 pm 23:35 Clear 80 26.7 73 22.7 79 79 SSW 12 19 29.93 1014 10 16 0.00 0.00
11:55 pm 23:55 Clear 80 26.5 73 22.7 80 80 SW 10 17 29.94 1014 10 16 0.00 0.00

Powered by AerisWeather